Content
SEND FEEDBACK

Daily
Averages
Monthly
Summary
United States of America

WILMINGTON, NORTH CAROLINA


Home > North America > United States > North Carolina
Elevation: 21 meters     Latitude: 34 16N     Longitude: 077 54W

WEATHER
 
SELECT A DAY
Number of Records: 214,086;   Date Range: 1/1/95 - 12/18/14
 
SHARE

PRINT THIS DATA

[ ← Previous Day ]
WEATHER ALMANAC - 16 JANUARY, 2013
[ Next Day → ]
[ °F ]   °C
Weather ElementAverageHighLow
Temperature18.8 °C25.6 °C (1:53 pm)15 °C (12:26 am)
Dewpoint15.9 °C18.3 °C (9:53 am)13.9 °C (9:53 pm)
Humidity84.4 %100 % (2:34 am)56 % (1:53 pm)
Barometer1016.6 hPa1018.3 hPa (12:26 am)1014.6 hPa (2:53 pm)
Wind Speed11.7 km/h27.8 km/h (11:53 am)
Wind Gust46.3 km/h (11:53 am)
Weather ElementAverage
Visibility12.2 km
Wind DirectionS (179.4 °)

Weather ElementTotal
Precipitation---
Cooling Degree Days2 (Base 18.3)
Growing Degree Days10.3 (Base 10)
Averaged from 32 records on 16 January, 2013
WEATHER CONDITIONS BREAKOUT
WIND DIRECTION BREAKOUT
WEATHER BY HOUR - 16 JANUARY, 2013
[ °F ]   °C
Local TimeTemperatureDewpointHumidityBarometerVisibilityWind DirectionWind SpeedGust SpeedPrecipitationEventsConditions
12:26 AM15 °C14 °C94 %1018.3 hPa0.3 kmESE (120°)5.6 km/hFogFog
12:53 AM15 °C14 °C94 %1017.9 hPa0.3 kmSE (130°)7.4 km/hFogFog
1:00 AM15 °C14 °C94 %1017.9 hPa0.3 kmSE (140°)7.4 km/hFogFog
1:53 AM16.1 °C15.6 °C97 %1017.9 hPa0.3 kmSSE (150°)9.3 km/hFogFog
2:34 AM16 °C16 °C100 %1017.9 hPa0.8 kmCalmFogFog
2:53 AM16 °C16 °C100 %1017.6 hPa0.8 kmCalmFogFog
3:22 AM16 °C16 °C100 %1017.3 hPa2.4 kmSouth (170°)9.3 km/hMostly Cloudy
3:24 AM16 °C15 °C94 %1017.3 hPa6.4 kmSouth (180°)9.3 km/hMostly Cloudy
3:31 AM17 °C16 °C94 %1016.9 hPa16.1 kmSouth (180°)11.1 km/hScattered Clouds
3:53 AM17.2 °C16.7 °C97 %1016.9 hPa16.1 kmSouth (190°)13 km/hClear
4:53 AM17.8 °C16.7 °C93 %1016.3 hPa16.1 kmSouth (180°)9.3 km/hClear
5:53 AM17.2 °C16.1 °C93 %1016.6 hPa16.1 kmSouth (190°)5.6 km/hScattered Clouds
6:53 AM16.7 °C15.6 °C93 %1016.6 hPa16.1 kmSouth (180°)9.3 km/hClear
7:53 AM18.3 °C17.2 °C93 %1017.3 hPa16.1 kmSSW (210°)9.3 km/hClear
8:48 AM19 °C18 °C94 %1017.6 hPa16.1 kmSW (230°)16.7 km/hMostly Cloudy
8:53 AM20 °C17.8 °C87 %1017.6 hPa16.1 kmSW (230°)16.7 km/hMostly Cloudy
9:42 AM21 °C18 °C83 %1017.6 hPa16.1 kmSSW (210°)14.8 km/hScattered Clouds
9:53 AM21.7 °C18.3 °C81 %1017.6 hPa16.1 kmSW (220°)22.2 km/h31.5 km/hPartly Cloudy
10:53 AM23.9 °C17.8 °C69 %1017.3 hPa16.1 kmWSW (240°)25.9 km/hClear
11:53 AM23.9 °C16.7 °C64 %1015.9 hPa16.1 kmSW (220°)27.8 km/h46.3 km/hClear
12:53 PM24.4 °C16.1 °C60 %1015.6 hPa16.1 kmSSW (210°)22.2 km/h38.9 km/hClear
1:53 PM25.6 °C16.1 °C56 %1014.9 hPa16.1 kmSSW (210°)16.7 km/h33.3 km/hPartly Cloudy
2:53 PM24.4 °C16.1 °C60 %1014.6 hPa16.1 kmSSW (210°)22.2 km/h31.5 km/hClear
3:53 PM23.9 °C16.1 °C62 %1014.9 hPa16.1 kmSSW (200°)18.5 km/hClear
4:53 PM22.2 °C15.6 °C66 %1015.6 hPa16.1 kmSSW (210°)16.7 km/hClear
5:53 PM20 °C15 °C73 %1015.6 hPa16.1 kmSSW (200°)13 km/hClear
6:53 PM19.4 °C15 °C76 %1016.3 hPa16.1 kmWSW (250°)5.6 km/hClear
7:53 PM18.3 °C14.4 °C78 %1016.3 hPa16.1 kmWSW (250°)7.4 km/hClear
8:53 PM17.2 °C14.4 °C84 %1016.3 hPa16.1 kmSouth (190°)7.4 km/hClear
9:53 PM15.6 °C13.9 °C90 %1016.3 hPa16.1 kmCalmClear
10:53 PM16.1 °C14.4 °C90 %1015.9 hPa16.1 kmSW (230°)5.6 km/hClear
11:53 PM16.7 °C15.6 °C93 %1015.6 hPa9.7 kmSSW (210°)7.4 km/hClear
Hourly data recorded from KILM, located 0 kilometers away from Wilmington, North Carolina







STORIES FROM OUR PARTNERS